Regional Weather Roundup
Issued by NWS

Home | Current Version | Previous Version | Text Only | Print | Product List | Glossary On
Versions: 1 2 3 4 5 6 7 8 9 10 11 12 13 14 15 16 17 18 19 20 21 22 23 24 25 26 27 28 29 30 31 32 33 34 35 36 37 38 39 40 41 42 43 44 45 46 47 48 49 50
000
ASUS43 KLMK 132210
RWRKY
KENTUCKY REGIONAL WEATHER ROUNDUP
NATIONAL WEATHER SERVICE LOUISVILLE KY
500 PM EST SAT FEB 13 2016

NOTE "FAIR" INDICATES FEW OR NO CLOUDS BELOW 12,000 FEET
WITH NO SIGNIFICANT WEATHER AND/OR OBSTRUCTIONS TO VISIBILITY.

KYZ001>023-026-027-061>063-070>075-132300-
WESTERN AND SOUTH CENTRAL KENTUCKY

CITY           SKY/WX    TMP DP  RH WIND       PRES   REMARKS
PADUCAH        CLOUDY    28   4  35 NE6       30.52F WCI  22
HENDERSON      SUNNY     23   3  42 NE5       30.55F WCI  17
OWENSBORO      SUNNY     24   1  36 N6        30.55S WCI  17
HOPKINSVILLE   CLOUDY    27   2  34 N6        30.50F WCI  21
BOWLING GREEN  SUNNY     29   0  28 CALM      30.51F
GLASGOW        SUNNY     28   2  33 CALM      30.49S
$$

KYZ024-025-028>034-038-045-046-053-132300-
NORTH CENTRAL KENTUCKY

CITY           SKY/WX    TMP DP  RH WIND       PRES   REMARKS
LOUISVILLE/SDF MOSUNNY   26  -2  29 NW7       30.52R WCI  18
LOUISVILLE/LOU SUNNY     26   0  32 NW6       30.52S WCI  19
FORT KNOX      SUNNY     25  -2  31 N7        30.48S WCI  17
$$

KYZ035>037-039>044-047>052-055>060-089>105-132300-
NORTHEAST KENTUCKY

CITY           SKY/WX    TMP DP  RH WIND       PRES   REMARKS
LEXINGTON      SUNNY     23   0  36 NW8       30.48R WCI  14
COVINGTON      MOSUNNY   18   1  47 NW10      30.49S WCI   6
FRANKFORT      SUNNY     23  -3  32 NW9       30.49R WCI  13
$$

KYZ054-064>069-076>088-106>120-132300-
SOUTHEAST KENTUCKY

CITY           SKY/WX    TMP DP  RH WIND       PRES   REMARKS
JACKSON        SUNNY     21   3  45 NE5       30.42S WCI  15
LONDON         SUNNY     24   2  38 N7        30.44R WCI  16
SOMERSET       SUNNY     25   3  39 N6        30.48S WCI  18
MIDDLESBORO    SUNNY     27   6  41 NW8       30.43R WCI  18
MONTICELLO     CLEAR     27   9  46 N17       30.48S WCI  14
$$




USA.gov is the U.S. government's official web portal to all federal, state and local government web resources and services.